Location: Les Chemineaux
(47.3024°N, 1.5104°E)
Time: 16:04:03
(UTC+00:00)

Okean 1 - Pass Details

Date: 19 May 2025
Orbit: 477 x 499 km, 82.5° (Epoch: 12 June)

Event Time Altitude Azimuth Distance (km) Brightness Sun altitude
Exits shadow 21:42:39 39° 165° (SSE) 753 3.5 -16.8°
Maximum altitude 21:43:51 66° 97° (E) 539 3.0 -16.9°
Drops below altitude 10° 21:47:30 10° 15° (NNE) 1,683 6.4 -17.3°
Sets 21:49:37 0° 12° (NNE) 2,565 7.5 -17.4°
